Location: Newark
(44.1667°N, 8.2500°E)
Time: 02:24:51
(UTC+00:00)

Envisat - Pass Details

Date: 15 November 2019
Orbit: 764 x 766 km, 98.1° (Epoch: 14 December)

Event Time Altitude Azimuth Distance (km) Brightness Sun altitude
Rises 18:03:15 0° 187° (S) 3,219 6.4 -21.9°
Reaches altitude 10° 18:05:42 10° 195° (SSW) 2,297 5.7 -22.4°
Maximum altitude 18:10:24 38° 263° (W) 1,157 4.4 -23.2°
Drops below altitude 10° 18:15:08 10° 331° (NNW) 2,313 5.8 -24.1°
Sets 18:17:37 0° 340° (NNW) 3,243 6.5 -24.5°
